Estación de San Julian
Ultimos registro cada 15 minutos 25
| N° | Estación | Fecha / Hora | Temperatura | Humedad | Lluvia | Velocidad | Dirección | Radiación | Presion |
| 25 | San Julian | 06-09-2026 07:00 | 8,9 | 93,5 | 0 | 0 | 253 | 0,6 | 980,8 |
| 24 | San Julian | 06-09-2026 06:45 | 8,8 | 94,1 | 0 | 0 | 251 | 0,6 | 980,8 |
| 23 | San Julian | 06-09-2026 06:30 | 9 | 94,1 | 0 | 0 | 253 | 0,6 | 980,9 |
| 22 | San Julian | 06-09-2026 06:15 | 8,6 | 93,7 | 0 | 0 | 253 | 0,6 | 980,9 |
| 21 | San Julian | 06-09-2026 06:00 | 8,6 | 94,9 | 0 | 0 | 251 | 0,6 | 981 |
| 20 | San Julian | 06-09-2026 05:45 | 7,3 | 94,6 | 0 | 0 | 253 | 0,6 | 980,8 |
| 19 | San Julian | 06-09-2026 05:30 | 7,4 | 94,4 | 0 | 0 | 253 | 0,6 | 980,9 |
| 18 | San Julian | 06-09-2026 05:15 | 7,7 | 94,2 | 0 | 0 | 253 | 0,6 | 980,9 |
| 17 | San Julian | 06-09-2026 05:00 | 7,5 | 93,4 | 0 | 0 | 253 | 0,6 | 980,9 |
| 16 | San Julian | 06-09-2026 04:45 | 7,5 | 92,4 | 0 | 0 | 253 | 0,6 | 981,1 |
| 15 | San Julian | 06-09-2026 04:30 | 8,5 | 92 | 0 | 0 | 253 | 0,6 | 981,1 |
| 14 | San Julian | 06-09-2026 04:15 | 8,8 | 91,8 | 0 | 0 | 253 | 0,6 | 981,2 |
| 13 | San Julian | 06-09-2026 04:00 | 8,9 | 91,3 | 0 | 0 | 253 | 0,6 | 981,4 |
| 12 | San Julian | 06-09-2026 03:45 | 8,9 | 90,8 | 0 | 0 | 253 | 0,6 | 981,6 |
| 11 | San Julian | 06-09-2026 03:30 | 9 | 91,3 | 0 | 0 | 253 | 0,6 | 981,4 |
| 10 | San Julian | 06-09-2026 03:15 | 8,5 | 90,6 | 0 | 0 | 253 | 0,6 | 981,4 |
| 9 | San Julian | 06-09-2026 03:00 | 9,1 | 90,3 | 0 | 0 | 253 | 0,6 | 981,4 |
| 8 | San Julian | 06-09-2026 02:45 | 8,6 | 91 | 0 | 0 | 253 | 0,6 | 981,4 |
| 7 | San Julian | 06-09-2026 02:30 | 9 | 90,9 | 0 | 0 | 253 | 0,6 | 981,8 |
| 6 | San Julian | 06-09-2026 02:15 | 8,4 | 91,1 | 0 | 0 | 253 | 0,6 | 981,7 |
| 5 | San Julian | 06-09-2026 02:00 | 9 | 90 | 0 | 0 | 253 | 0,6 | 981,7 |
| 4 | San Julian | 06-09-2026 01:45 | 9,9 | 90,5 | 0 | 0 | 253 | 0,6 | 981,5 |
| 3 | San Julian | 06-09-2026 01:30 | 9,4 | 89,8 | 0 | 0 | 253 | 0,6 | 981,8 |
| 2 | San Julian | 06-09-2026 01:15 | 9,7 | 89 | 0 | 0 | 253 | 0,6 | 982 |
| 1 | San Julian | 06-09-2026 01:00 | 9,9 | 88 | 0 | 0 | 253 | 0,6 | 982,1 |